Location: Newark
(52.5694°N, 1.3190°W)
Time: 22:35:25
(UTC+00:00)

N. Korean satellite - Pass Details

Date: 30 January 2020
Orbit: 456 x 505 km, 97.2° (Epoch: 26 February)

Event Time Altitude Azimuth Distance (km) Brightness Sun altitude
Rises 17:21:16 0° 183° (S) 2,466 10.5 -5.6°
Reaches altitude 10° 17:23:22 10° 191° (S) 1,601 9.7 -5.9°
Maximum altitude 17:26:37 40° 262° (W) 702 8.1 -6.4°
Drops below altitude 10° 17:29:55 10° 333° (NNW) 1,630 9.3 -6.8°
Sets 17:32:05 0° 341° (NNW) 2,519 10.2 -7.1°
